Regional Weather Roundup
Issued by NWS

Home | Current Version | Previous Version | Text Only | Print | Product List | Glossary On
Versions: 1 2 3 4 5 6 7 8 9 10 11 12 13 14 15 16 17 18 19 20 21 22 23 24 25 26 27 28 29 30 31 32 33 34 35 36 37 38 39 40 41 42 43 44 45 46 47 48 49 50
000
ASUS45 KBOU 302207
RWRCO

WEATHER ROUNDUP FOR COLORADO
NATIONAL WEATHER SERVICE DENVER/BOULDER CO
400 PM MDT THU MAR 30 2017

NOTE: "FAIR" INDICATES FEW OR NO CLOUDS BELOW 12000 FEET WITH NO
SIGNIFICANT WEATHER AND/OR OBSTRUCTIONS TO VISIBILITY.

COZ001>005-013-030-031-302300-
...NORTHWEST COLORADO...

CITY           SKY/WX    TMP DP  RH WIND       PRES   REMARKS
CRAIG          FAIR      61  25  25 S12       29.64F
HAYDEN         PTSUNNY   55  27  33 NE7       29.67F
MEEKER         CLOUDY    61  23  23 SW13G23   29.64F
MOUNT WERNER   NOT AVBL
STEAMBOAT SPGS FAIR      56  29  35 S5        29.69F
WALDEN         NOT AVBL
$$

COZ006>008-011-302300-
...WEST CENTRAL VALLEYS...

CITY           SKY/WX    TMP DP  RH WIND       PRES   REMARKS
GRAND JUNCTION CLOUDY    67  26  21 S8        29.57F
MONTROSE       CLOUDY    65  24  21 SW6       29.64F
EAGLE          PTSUNNY   61  25  25 SW12G21   29.70F
RIFLE          PTSUNNY   64  26  23 VRB3      29.63F
DELTA          PTSUNNY   68  24  18 NE5       29.62F
NUCLA          PTSUNNY   66  23  19 S16G25    29.70F
$$

COZ017>023-064>068-302300-
...SOUTHWEST COLORADO...

CITY           SKY/WX    TMP DP  RH WIND       PRES   REMARKS
DURANGO        FAIR      60  20  21 S9        29.78F
CORTEZ         FAIR      66  23  19 S13G24    29.70F
PAGOSA SPRINGS FAIR      56  19  23 SW9       29.84F
TELLURIDE      PTSUNNY   52  22  30 SW14G20   29.82F
WOLF CREEK PAS FAIR      32  21  64 SW24G31   30.00F WCI  19
$$

COZ009-010-012-014-032>034-037-058>063-302300-
...CENTRAL COLORADO...

CITY           SKY/WX    TMP DP  RH WIND       PRES   REMARKS
ASPEN          FAIR      55  24  30 SW8       29.73F
BUENA VISTA    CLOUDY    57  18  21 W3G21     29.75F
COPPER MTN     CLOUDY    37  21  52 SW3G17    29.92S
BERTHOUD PASS  FLURRIES  28  18  64 N5        29.93S WCI  23
COTTONWOOD PAS FAIR      52  18  25 W8G23     29.83F
GUNNISON       FAIR      55  25  31 VRB6      29.74F
KREMMLING      CLOUDY    63  23  22 CALM      29.72F
LEADVILLE      CLOUDY    44  17  33 CALM      29.81F
MONARCH PASS   FAIR      36  21  55 W24G32    30.03S
SALIDA         FAIR      62  20  20 SW9G16    29.82S
SUNLIGHT       CLOUDY    36  23  60 S9        29.88F
WILKERSON PASS CLOUDY    41  21  45 SW7       29.92F
$$

COZ069>075-302300-
...SAN LUIS VALLEY/SANGRE DE CRISTO MOUNTAINS...

CITY           SKY/WX    TMP DP  RH WIND       PRES   REMARKS
ALAMOSA        FAIR      61  20  20 SW21G29   29.75F
LA VETA PASS   NOT AVBL
SAGUACHE       CLOUDY    55  21  26 S7        29.78F
$$

COZ035-036-038>040-302300-
...NORTHERN COLORADO FRONT RANGE...

CITY           SKY/WX    TMP DP  RH WIND       PRES   REMARKS
DENVER INTL AP PTSUNNY   64  30  27 E9        29.65F
DMNS CITY PARK   N/A     65  27  24 NE6G20    29.63F
AURORA         PTSUNNY   66  29  25 E12       29.65F
FRONT RANGE AP PTSUNNY   66  30  26 E8G17     29.67F
ERIE MUNI ARPT FAIR      69  24  18 SW7         N/A
BOULDER MUN AP CLOUDY    64  28  25 E6        29.63F
CENTENNIAL     PTSUNNY   63  27  25 SE8       29.66F
BROOMFIELD     PTSUNNY   64  27  24 CALM      29.66F
FORT COLLINS   FAIR      67  30  25 VRB5      29.65F
LONGMONT       CLOUDY    68  29  24 E6        29.65S
$$

COZ041-046-047-076>085-087-088-302300-
...PIKES PEAK/PALMER DIVIDE AND SOUTHERN FOOTHILLS...

CITY           SKY/WX    TMP DP  RH WIND       PRES   REMARKS
COLO. SPRINGS  PTSUNNY   62  26  25 SE18G26   29.71F
A. F. ACADEMY  MOSUNNY   59  25  26 SE13G22   29.71F
SCHRIEVER AFB  FAIR      60  26  26 S18       29.72F
ELLICOTT       FAIR     N/A N/A N/A S15G26    29.71F
FALCON         FAIR      58  23  25 S20       29.75F
FORT CARSON    FAIR      64  28  24 SE12G21   29.69F
LIMON          PTSUNNY   61  30  31 S14       29.69F
MONUMENT HILL  PTSUNNY   54  28  37 S12       29.75S
TRINIDAD       FAIR      66  29  24 E9        29.70F
$$

COZ042>045-048>051-090-091-302300-
...NORTHEAST COLORADO...

CITY           SKY/WX    TMP DP  RH WIND       PRES   REMARKS
GREELEY ARPT   PTSUNNY   65  33  30 SE13      29.65F
AKRON          FAIR      62  34  35 E5        29.68F
BURLINGTON     FAIR      62  39  42 VRB3      29.71F
WRAY           NOT AVBL
STERLING       FAIR      61  37  41 CALM      29.65F
HOLYOKE        FAIR      61  39  44 S6        29.70F
FORT MORGAN    FAIR      65  28  25 SE7       29.67F
$$

COZ086-089-092>099-302300-
...SOUTHEAST COLORADO...

CITY           SKY/WX    TMP DP  RH WIND       PRES   REMARKS
PUEBLO         FAIR      70  30  22 SE16      29.63F
LA JUNTA       FAIR      69  30  23 SE13G24   29.68F
LAMAR          FAIR      68  33  27 VRB5      29.68F
SPRINGFIELD      N/A     66  35  31 S14       29.71F
$$



USA.gov is the U.S. government's official web portal to all federal, state and local government web resources and services.